Lid_Strength_Index
-1 -1 -0 2 9 9 12 11 8 9 8 6 5 6 7 7 8 11 1 0 -0 -0 -1 -1 -2 -1 -1 -1 -1 -1 -1 -1 -1 -1 -1 -1 -1 -2 -1 -1 -1 -1 -1 -1 -1 -1 -1 -1 -1
1 0 1 5 11 13 12 9 9 8 6 5 5 6 7 8 5 4 3 0 -0 -1 -1 -1 -1 -1 -1 -1 -1 -1 -1 -1 -1 -1 -1 -2 -1 -1 -1 -1 -1 -1 -1 -1 -1 -1 -1 -1 -1
1 1 5 8 11 13 12 9 8 7 5 6 7 5 6 7 4 3 1 -0 -1 -1 -1 -1 -2 -2 -2 -2 -1 -1 -1 -1 -1 -1 -1 -1 -1 -1 -1 -1 -1 -1 -1 -1 -1 -1 -1 -1 -1
2 3 5 10 12 10 10 8 7 7 6 5 5 8 5 2 3 1 0 -0 -0 -0 -1 -1 -2 -2 -1 -2 -2 -1 -1 -1 -1 -1 -1 -1 -1 -1 -1 -1 -1 -1 -1 -1 -1 -1 -1 -1 -1
1 4 10 11 11 9 7 6 6 7 7 6 6 8 7 3 1 1 0 -0 0 -0 -1 -1 -2 -2 -1 -1 -1 -1 -1 -2 -1 -1 -1 -1 -1 -1 -1 -1 -1 -1 -1 -1 -1 -1 -1 -1 -1
6 5 11 12 11 9 7 6 6 7 6 6 7 7 6 2 2 1 0 -0 -0 0 -1 -1 -2 -2 -2 -2 -2 -1 -1 -1 -1 -1 -1 -1 -1 -1 -1 -1 -1 -1 -1 -1 -1 -1 -1 -1 -1
7 8 11 11 11 9 8 5 7 7 7 7 5 8 5 3 1 1 0 -0 -0 -1 -1 -1 -1 -1 -2 -2 -1 -1 -2 -1 -1 -1 -1 -1 -1 -1 -1 -1 -1 -1 -1 -1 -1 -1 -1 -1 -1
5 7 11 10 11 11 6 6 5 6 7 4 4 8 7 3 1 1 0 0 -0 -0 -1 -1 -1 -2 -2 -1 -1 -1 -1 -1 -1 -1 -1 -1 -1 -1 -1 -1 -1 -1 -1 -1 -1 -1 -1 -1 -1
4 8 11 11 10 9 6 7 5 4 6 5 4 5 3 2 1 1 2 1 1 0 -0 -1 -1 -1 -1 -1 -1 -1 -1 -1 -1 -1 -1 -1 -1 -1 -1 -1 -1 -1 -1 -1 -1 -1 -1 -1 -1
6 9 9 7 7 8 6 6 6 6 7 6 6 4 3 2 2 3 3 3 2 1 0 -0 -1 -1 -1 -1 -2 -2 -1 -1 -2 -2 -2 -1 -1 -2 -2 -1 -1 -1 -1 -1 -1 -1 -1 -1 -2
6 8 6 7 5 6 6 6 5 7 8 6 6 5 4 3 3 3 3 2 2 1 0 -0 -0 -1 -1 -1 -1 -1 -1 -1 -1 -2 -2 -1 -1 -2 -2 -2 -2 -2 -1 -1 -1 -1 -1 -1 -1
7 6 6 5 5 6 7 5 7 6 6 4 4 4 4 4 4 3 3 2 2 1 1 -0 -1 -1 -1 -1 -1 -1 -1 -1 -1 -1 -2 -1 -1 -1 -2 -1 -2 -1 -2 -1 -1 -1 -1 -1 -1
7 7 8 5 5 5 5 6 6 6 4 4 3 4 4 4 3 2 2 2 1 2 1 0 -0 -0 -1 -1 -1 -1 -1 -1 -1 -1 -1 -1 -1 -1 -1 -1 -1 -1 -2 -1 -1 -1 -1 -1 -1
6 7 7 5 6 6 7 7 6 6 4 4 4 4 4 4 3 3 2 2 2 1 1 0 -0 -1 -1 -1 -1 -1 -1 -1 -1 -1 -1 -2 -1 -1 -1 -1 -1 -1 -1 -1 -1 -1 -1 -1 -1
7 8 6 6 6 6 6 8 8 5 5 5 5 4 4 4 3 3 2 2 1 1 1 0 -0 -1 -0 -1 -1 -1 -1 -1 -1 -1 -1 -2 -1 -1 -1 -1 -1 -2 -2 -1 -1 -1 -1 -1 -1
8 7 9 6 6 6 6 10 6 5 6 6 5 5 4 4 3 2 2 2 1 1 1 0 -0 -0 -0 -0 -1 -1 -1 -1 -1 -1 -1 -1 -1 -1 -1 -1 -1 -2 -2 -1 -1 -1 -0 -0 -0
8 9 9 8 6 6 7 8 7 5 6 6 6 5 5 4 3 2 2 1 1 1 1 1 0 0 -0 -1 -1 -1 -1 -1 -1 -1 -1 -1 -1 -1 -1 -1 -1 -2 -1 -1 -1 -1 -1 0 0
10 10 10 10 7 8 8 7 6 6 6 6 6 5 5 5 4 3 2 1 1 1 0 0 0 -0 -0 -0 -1 -1 -1 -1 -1 -1 -1 -1 -1 -1 -1 -1 -1 -1 -1 -1 -1 -1 -1 -0 0
9 10 10 8 7 8 7 7 6 6 6 7 6 6 5 5 3 2 2 1 1 1 1 1 1 0 0 1 1 1 1 0 -0 -1 -1 -2 -1 -1 -1 -1 -1 -1 -1 -1 -1 -1 -0 -0 -0
9 10 9 8 7 8 7 7 6 7 6 6 6 6 5 5 4 3 2 2 2 2 1 1 1 0 0 0 0 0 0 0 -0 -1 -1 -1 -2 -1 -1 -1 -1 -1 -1 -1 -1 -0 0 -0 -0
9 10 10 9 8 7 8 9 8 5 6 5 5 5 4 5 4 4 3 2 2 2 1 1 1 0 0 -0 -0 -0 -0 -0 0 0 -0 -1 -1 -1 -1 -1 -1 -1 -1 -0 -0 -1 0 1 -0
10 9 9 10 10 11 8 11 7 7 6 6 5 5 5 4 4 3 3 3 2 2 1 1 1 0 0 -0 0 1 1 2 1 0 -0 -0 -1 -1 -1 -1 -1 -1 -1 -1 -0 -1 -1 -0 1
9 9 9 9 9 10 10 10 9 8 8 7 6 5 4 4 4 4 3 3 2 1 1 1 1 1 0 0 0 1 1 1 0 0 -0 -0 -1 -1 -1 -1 -1 -1 -0 -1 -1 -1 -1 -1 0
8 8 9 10 9 11 10 10 10 9 8 7 5 4 5 4 4 3 2 2 2 1 1 1 1 1 0 0 0 1 1 1 1 1 1 1 0 -0 -1 -1 -1 -1 -1 -0 -1 -1 -0 -0 -0
8 9 11 12 12 12 11 11 9 8 7 7 6 6 4 4 4 4 3 3 2 2 2 1 1 1 1 1 0 0 1 1 1 1 1 1 1 0 -0 -1 -1 -1 -1 -1 -1 -1 -0 -0 0
9 9 11 14 13 12 11 11 9 7 6 5 5 6 4 4 4 4 3 3 3 2 2 2 2 2 1 1 1 0 0 1 1 0 0 0 0 0 -1 -1 -1 -1 -1 -1 -1 -0 -1 -0 -0
10 10 9 11 13 13 10 9 7 6 5 5 5 5 5 4 4 4 3 3 3 2 2 2 2 1 1 1 1 1 0 0 1 0 0 0 -0 -0 -1 -1 -1 -1 -1 -1 -1 -0 -0 -0 -0
8 8 11 11 13 14 11 11 10 7 6 6 5 5 5 4 4 3 3 3 2 2 2 1 1 1 1 1 1 1 0 0 0 -0 0 -0 -0 -0 -1 -0 -1 -1 -1 -1 -1 -0 -1 0 0
9 10 10 10 11 12 13 11 6 7 6 6 5 5 4 4 4 3 3 2 2 2 2 2 1 1 1 1 1 1 1 0 0 0 0 -0 -0 -0 -0 -0 -0 -0 -0 -1 -0 -0 -0 0 0
8 9 9 11 12 11 11 10 6 6 5 6 5 5 4 4 4 3 3 3 3 2 2 2 2 2 1 1 1 1 0 0 1 0 0 -0 0 -0 -0 -0 -0 -0 -0 -1 -0 0 -0 0 1